Flag for United Kingdom Weather past 2 weeks in Cheltenham, England, United Kingdom

Now
47 °F

Cool.


Feels Like: 42 °F
Forecast: 43 / 54 °F
Wind: 13 mph from West

Location: Little Rissington

Current Time: Dec 19, 2014 at 6:44:18 AM

Latest Report: Dec 19, 2014 at 6:00 AM


Visibility: 34 mi

Pressure: 29.81 "Hg

Humidity: 94%

Dew point: 46 °F

Location of CheltenhamLocation

Historic Weather in Cheltenham — Graph

°F

Cheltenham temperature yesterday

Maximum temperature yesterday: 53 °F (at 3:00 PM)
Minimum temperature yesterday: 51 °F (at 11:00 AM)
Average temperature yesterday: 52 °F

Past Weeks' High & Low Weather Summary

 TemperatureHumidityPressure
High53 °F (Dec 17, 1:00 PM)100% (Dec 4, 5:00 AM)30.39 "Hg (Dec 4, 5:00 AM)
Low30 °F (Dec 13, 7:00 AM)65% (Dec 10, 12:00 PM)29.21 "Hg (Dec 12, 4:00 AM)
Average40 °F92%29.93 "Hg
* Reported Dec 4 5:00 AM — Dec 19 5:00 AM, Cheltenham, Weather by CustomWeather, © 2014

Note: Actual official high and low records may vary slightly from our data, if they occured in-between our weather recording intervals... More about our weather records

Advertising

Cheltenham weather history for previous 24 hours

 ConditionsComfort  
Time TempWeatherWind HumidityBarometerVisibility
5:00 AM
Dec 19
49 °FCool.18 mph97%29.78 "Hg13 mi
4:00 AM51 °FCool.22 mph99%29.74 "Hg10 mi
2:00 AM52 °FCool.26 mph99%29.75 "Hg5 mi
1:00 AM52 °FCool.26 mph99%29.76 "Hg4 mi
12:00 AM52 °FCool.26 mph99%29.77 "Hg2 mi
11:00 PM
Dec 18
51 °FCool.23 mph99%29.78 "Hg3 mi
10:00 PM51 °FCool.26 mph97%29.78 "Hg9 mi
8:00 PM52 °FCool.29 mph94%29.79 "Hg18 mi
7:00 PM52 °FCool.28 mph95%29.79 "Hg16 mi
6:00 PM52 °FCool.28 mph95%29.78 "Hg22 mi
5:00 PM52 °FCool.29 mph95%29.78 "Hg19 mi
4:00 PM52 °FCool.24 mph96%29.78 "Hg7 mi
3:00 PM53 °FCool.30 mph92%29.76 "Hg31 mi
2:00 PM52 °FCool.28 mph94%29.77 "Hg25 mi
1:00 PM52 °FCool.29 mph94%29.78 "Hg25 mi
12:00 PM51 °FCool.31 mph96%29.78 "Hg18 mi
11:00 AM51 °FCool.29 mph96%29.79 "Hg19 mi
10:00 AM51 °FCool.30 mph94%29.80 "Hg28 mi
9:00 AM52 °FCool.26 mph94%29.78 "Hg34 mi
8:00 AM52 °FCool.23 mph96%29.78 "Hg31 mi
7:00 AM52 °FCool.25 mph95%29.76 "Hg34 mi
6:00 AM52 °FCool.20 mph95%29.76 "Hg28 mi
Weather by CustomWeather, © 2014

See weather overviewHow to use our weather pages